全球卫星定位系统 GPS 1 星 (NAVSTAR 1 (OPS 5111))

导读

OPS 5111(NAVSTAR 1)由美国于1978年2月22日发射,是全球定位系统(GPS)早期技术验证卫星,标志着美国导航卫星系统研发进入关键验证阶段。该卫星运行在近地轨道,轨道周期约727分钟,倾角约64.24度,为后续GPS全球组网积累了宝贵的轨道测试与技术实践经验,是全球卫星导航体系发展的重要起点。

基本信息
目录编号:
10684
目录名称:
OPS 5111 (NAVSTAR 1)
国际标识:
1978-020A
轨道中心:
EARTH
卫星名称:
GPS 1 星
卫星全名:
全球卫星定位系统 GPS 1 星 (NAVSTAR 1 (OPS 5111))
卫星状态:
在轨 (已飞行17648 天)
发射日期:
1978-02-22 UTC
国别 :
美国 (US)
星等 :
--
轨道信息
数据来源 国际轨道数据 AOE轨道数据
星历时间 2026-06-16T05:50:48+0800
2天前
查看轨道信息
2026-06-16T12:00:00+0800
2天前
查看轨道信息
半长轴 26782.642km 26782.633km
偏心率 0.008087 0.0080848
轨道倾角 64.347° 64.347°
近地点辐角 218.787° 218.769°
升交点赤经 52.359° 52.351°
平近点角 140.688° 323.525°
近地点 20187.913km 20187.963km
远地点 20621.097km 20621.029km
周期 727.009分钟 727.009分钟
每日圈数 1.980718 1.980719
详细信息
平衡模式:
三轴稳定
覆盖范围:
全球
运营商:
美国太空军
运营商所在国:
美国
制造商(研发单位):
罗克韦尔自动化公司
制造商所在国:
美国
使用方式:
暂无
卫星简介
全球定位系统(英语:Global Positioning System,通常简称GPS),又称全球卫星定位系统,是美国国防部研制,美国太空军运营与维护的中地球轨道卫星导航系统。它可以为地球表面约98%的地区提供准确的定位、测速和高精度的标准时间。全球定位系统可满足位于全球地面任何一处或近地空间的军事用户连续且精确地确定三维位置、三维运动和时间的需求。该系统包括太空中的31颗GPS人造卫星.该卫星已退役。
2D轨道图
3D轨道图
轨道高度分析图
轨道倾角分析图
轨道综合分析图
查看轨道综合分析图